This is the latest recevied weather packets stored in our database for station/object IZ5MJO-13. If no packets are shown the sender has not sent any weather packets the latest 10 day(s).
| Time | Temp. | Humidity | Pressure | Rain* | Wind** | Luminosity | Snow |
|---|---|---|---|---|---|---|---|
| 1788017702 | 32.78° C | 28% | 1005.3 hPa | - | - | - | - |
| 1788016802 | 33.89° C | 27% | 1005.5 hPa | - | - | - | - |
| 1788015901 | 34.44° C | 25% | 1005.5 hPa | - | - | - | - |
| 1788015001 | 33.89° C | 25% | 1005.4 hPa | - | - | - | - |
| 1788014101 | 33.89° C | 24% | 1005.5 hPa | - | - | - | - |
| 1788013201 | 34.44° C | 24% | 1005.6 hPa | - | - | - | - |
| 1788012301 | 33.89° C | 23% | 1005.7 hPa | - | - | - | - |
| 1788011400 | 33.89° C | 21% | 1005.8 hPa | - | - | - | - |
| 1788010500 | 34.44° C | 26% | 1005.8 hPa | - | - | - | - |
| 1788009600 | 34.44° C | 25% | 1005.9 hPa | - | - | - | - |
| 1788008700 | 34.44° C | 26% | 1006 hPa | - | - | - | - |
| 1788007800 | 33.33° C | 26% | 1006.3 hPa | - | - | - | - |
| 1788006899 | 33.33° C | 27% | 1006.1 hPa | - | - | - | - |
| 1788005999 | 32.78° C | 30% | 1006.3 hPa | - | - | - | - |
| 1788005099 | 32.22° C | 31% | 1006.2 hPa | - | - | - | - |
| 1788004203 | 32.22° C | 33% | 1006.4 hPa | - | - | - | - |
| 1788003303 | 31.67° C | 34% | 1006.4 hPa | - | - | - | - |
| 1788002403 | 31.11° C | 38% | 1006.5 hPa | - | - | - | - |
| 1788001503 | 31.11° C | 39% | 1006.5 hPa | - | - | - | - |
| 1788000603 | 29.44° C | 41% | 1006.6 hPa | - | - | - | - |
| 1787999703 | 29.44° C | 42% | 1006.5 hPa | - | - | - | - |
| 1787998802 | 28.89° C | 46% | 1006.6 hPa | - | - | - | - |
| 1787997902 | 28.33° C | 45% | 1006.8 hPa | - | - | - | - |
| 1787997002 | 27.78° C | 47% | 1006.9 hPa | - | - | - | - |
| 1787996102 | 27.22° C | 48% | 1006.8 hPa | - | - | - | - |
* Rain since midnight (hover to see other rain measurements)
** Current wind speed in m/s (hover to see current wind gust speed)